User: anonymous   Login
Location: Unspecified
(0.0000°N, 0.0000°E)
Time: 09:36:36
(UTC+01:00)
Language:

Cosmos 1898 Rocket - Orbit

View from above orbital plane
View from above orbital plane
View from above satellite
View from above satellite

Ground track
Ground track

The orbit data is extracted from the following two-line orbital elements,

1 18586U 87098B   16342.20975370  .00000019  00000-0  15258-4 0  9994
2 18586  74.0073 288.8313 0020300  27.5733  72.6661 14.36750344519792
Epoch (UTC): 07 December 2016 05:02:02
Eccentricity: 0.0020300
inclination: 74.0073°
perigee height: 755 km
apogee height: 784 km
right ascension of ascending node: 288.8313°
argument of perigee: 27.5733°
revolutions per day: 14.36750344
mean anomaly at epoch: 72.6661°
orbit number at epoch: 51979

The dashed part of the orbit path shows where the satellite is in the earth's shadow,  

DLR